Flag for Peru Weather past 2 weeks in Arequipa, Arequipa, Peru

Now
72 °F

Scattered clouds.


Feels Like: 76 °F
Forecast: 52 / 72 °F
Wind: 12 mph from West

Location: Arequipa Airport

Current Time: Sep 4, 2015 at 2:17:13 PM

Latest Report: Sep 4, 2015 at 1:00 PM


Visibility: N/A

Pressure: 30.27 "Hg (23.07 "Hg at 2345m altitude)

Humidity: 25%

Dew point: 34 °F

Location of ArequipaLocation

Historic Weather in Arequipa — Graph

°F

Arequipa temperature yesterday

Maximum temperature yesterday: 70 °F (at 11:00 AM)
Minimum temperature yesterday: 54 °F (at 5:00 AM)
Average temperature yesterday: 61 °F

Past Weeks' High & Low Weather Summary

 TemperatureHumidityPressure
High75 °F (Aug 29, 2:00 PM)54% (Sep 4, 6:00 AM)30.39 "Hg (Sep 4, 6:00 AM)
Low46 °F (Aug 24, 5:00 AM)6% (Aug 27, 10:00 AM)30.21 "Hg (Aug 29, 4:00 PM)
Average60 °F24%30.30 "Hg
* Reported Aug 20 1:00 PM — Sep 4 1:00 PM, Arequipa, Weather by CustomWeather, © 2015

Note: Actual official high and low records may vary slightly from our data, if they occured in-between our weather recording intervals... More about our weather records

Advertising

Arequipa weather history for previous 24 hours

 ConditionsComfort  
Time TempWeatherWind HumidityBarometerVisibility
1:00 PM
Fri, Sep 4
72 °FScattered clouds.12 mph25%30.27 "HgN/A
12:00 PM70 °FPassing clouds.8 mph29%30.27 "HgN/A
11:00 AM66 °FPassing clouds.8 mph32%30.33 "HgN/A
10:00 AM66 °FPassing clouds.9 mph35%30.33 "HgN/A
9:00 AM63 °FPassing clouds.5 mph37%30.33 "HgN/A
8:00 AM63 °FSunny.2 mph37%30.33 "Hg10 mi
7:00 AM54 °FSunny.5 mph51%30.33 "Hg10 mi
6:00 AM54 °FSunny.5 mph54%30.30 "Hg10 mi
5:00 AM55 °FClear.2 mph51%30.27 "Hg10 mi
4:00 AM55 °FClear.7 mph51%30.27 "Hg10 mi
3:00 AM54 °FClear.6 mph51%30.27 "Hg10 mi
2:00 AM54 °FClear.No wind51%30.30 "Hg10 mi
1:00 AM55 °FClear.5 mph51%30.30 "Hg10 mi
12:00 AM55 °FPassing clouds.5 mph51%30.33 "HgN/A
11:00 PM
Thu, Sep 3
59 °FPassing clouds.2 mph45%30.33 "HgN/A
10:00 PM59 °FPassing clouds.5 mph45%30.33 "HgN/A
9:00 PM55 °FPassing clouds.No wind51%30.36 "HgN/A
8:00 PM57 °FPassing clouds.5 mph48%30.33 "HgN/A
7:00 PM57 °FPassing clouds.8 mph48%30.33 "HgN/A
6:00 PM59 °FPassing clouds.6 mph45%30.30 "HgN/A
5:00 PM61 °FScattered clouds.10 mph42%30.30 "HgN/A
4:00 PM64 °FScattered clouds.12 mph34%30.30 "HgN/A
3:00 PM68 °FPassing clouds.12 mph26%30.27 "HgN/A
2:00 PM68 °FPassing clouds.13 mph28%30.30 "HgN/A
Weather by CustomWeather, © 2015

See weather overviewHow to use our weather pages